[[{"header":{"parameterUnit":"m.s-1","parameterCategory":1,"la1":30.2991,"la2":30.254,"lo1":-89.0895,"lo2":-89.0444,"dy":0.0017,"dx":0.0017,"nx":28,"ny":28,"refTime":"2024-10-21T03:00:00:Z","depth":0,"parameterNumber":2,"parameterNumberName":"U-component_of_WINDS"},"data":[0,0,0,0,0,0,0,0,0,0,0,0,0,0,0,0,0,0,0,0,0,0,0,0,0,0,0,0,0,0,0,0,0,0,0,0,0,0,0,0,0,0,0,0,0,0,0,0,0,0,0,0,0,0,0,0,0,0,-2.9729,-2.9729,0,-2.9789,-2.979,-2.979,-2.9683,-2.9679,-2.9676,-2.9672,-2.9736,-2.9741,-2.9746,0,0,0,0,0,0,0,0,0,0,0,0,0,-2.9521,-2.9525,-2.9729,-2.9729,-2.973,-2.9789,-2.979,-2.9791,-2.9684,-2.9679,-2.9675,-2.9671,-2.9734,-2.974,-2.9746,0,0,0,0,0,0,0,0,0,0,0,0,0,-2.9599,-2.9527,-2.9729,-2.9684,-2.968,-2.9789,-2.979,-2.9791,-2.9684,-2.9679,-2.9674,-2.9669,-2.9732,-2.9739,-2.9747,-2.9902,0,0,-2.977,-2.9773,0,0,0,0,0,0,0,0,-2.9595,-2.9607,-2.969,-2.9687,-2.9683,-2.9723,-2.974,-2.9828,-2.9686,-2.9683,-2.9672,-2.9666,-2.9736,-2.9743,-2.9766,-2.9905,-2.9908,-2.9771,-2.9775,-2.9779,-2.9781,0,0,0,0,0,0,0,-2.959,-2.9604,-2.9753,-2.9691,-2.9687,-2.9661,-2.9666,-2.9756,-2.9739,-2.9683,-2.9675,-2.9684,-2.9733,-2.9759,-2.9767,-2.9909,-2.9771,-2.9777,-2.9782,-2.9785,-3.0178,-3.0183,0,0,0,0,0,0,-2.959,-2.96,-2.9751,-2.9754,-2.9625,-2.9669,-2.9675,-2.9716,-2.9738,-2.9736,-2.9688,-2.9678,-2.9749,-2.9758,-2.9769,-2.9952,-2.9779,-2.9786,-2.979,-3.0172,-3.0179,-3.0185,0,0,0,0,0,0,-2.9586,-2.9604,-2.9748,-2.9675,-2.9691,-2.9678,-2.9725,-2.972,-2.9746,-2.9742,-2.9738,-2.9718,-2.9745,-2.9758,-2.987,-2.9953,-2.9789,-2.9796,-3.0165,-3.0174,-3.0182,-3.0321,0,0,0,0,0,0,-2.958,-2.9603,-2.9662,-2.9677,-2.9696,-2.9849,-2.973,-2.9725,-2.9759,-2.9747,-2.9769,-2.9767,-2.9742,-2.9859,-2.9877,-2.996,-2.9802,-3.0158,-3.0169,-3.0179,-3.0309,-3.0333,-3.0354,0,0,0,0,0,-2.9573,-2.9699,-2.9666,-2.9685,-2.9769,-2.9854,-2.9864,-2.9832,-2.9766,-2.9825,-2.9823,-2.9767,-2.994,-2.9871,-2.9891,-2.9978,-3.0152,-3.0166,-3.0179,-3.0299,-3.0329,-3.0354,0,0,0,0,0,0,-2.9696,-2.9701,-2.9664,-2.9798,-2.9826,-2.9835,-2.9909,-2.9864,-2.9912,-2.9899,-2.9856,-2.9862,-2.9983,-2.9991,-2.9914,-3.0129,-3.0035,-3.0053,-3.012,-3.0148,-3.017,-3.0167,-2.9808,0,0,0,0,0,-2.9738,-2.9806,-2.9807,-2.9926,-2.9941,-2.9923,-2.9959,-2.9931,-2.9958,-2.997,-2.9975,-3.0005,-3.0065,-3.0107,-3.0163,-3.0309,-3.0312,-3.0378,-3.0401,-3.0419,-3.0436,-3.0514,-3.0543,-3.0229,-3.0229,-3.0229,0,0,-2.9827,-2.9838,-2.9884,-2.995,-2.9969,-3.004,-2.9934,-3.0014,-3.0067,-2.9982,-3.0088,-3.0093,-3.0123,-3.0252,-3.031,-3.0263,-3.0523,-3.0436,-3.0451,-3.0458,-3.0531,-3.056,-3.0587,-3.0238,-3.0236,-3.0235,0,0,-3.0026,-3.0041,-3.0142,-3.0162,-3.0191,-3.0178,-3.0202,-3.0217,-3.0217,-3.0323,-3.0261,-3.0322,-3.0428,-3.0452,-3.0478,-3.0684,-3.0635,-3.0703,-3.0823,-3.09,-3.0925,-3.0946,-3.1021,-3.1048,-3.0719,-3.072,-3.072,0,-3.0134,-3.0239,-3.0199,-3.0284,-3.0315,-3.024,-3.0342,-3.0364,-3.041,-3.0433,-3.038,-3.0511,-3.0525,-3.0659,-3.071,-3.0733,-3.0759,-3.0702,-3.0924,-3.0945,-3.0965,-3.1036,-3.1064,-3.0728,-3.0727,-3.0726,-3.0726,0,-3.037,-3.0443,-3.0521,-3.0567,-3.0607,-3.07,-3.0675,-3.0719,-3.0687,-3.068,-3.0788,-3.0802,-3.086,-3.0889,-3.0859,-3.1019,-3.0989,-3.0931,-3.0836,-3.1004,-3.107,-3.1097,-3.074,-3.0737,-3.0735,-3.0732,0,0,-3.065,-3.0672,-3.0701,-3.0721,-3.0746,-3.0803,-3.0892,-3.0947,-3.0987,-3.102,-3.1095,-3.1185,-3.113,-3.116,-3.1132,-3.1199,-3.1362,-3.1131,-3.1131,-3.1175,-3.154,-3.1586,-3.1618,-3.1328,-3.1333,-3.1337,-3.1538,0,-3.0849,-3.1003,-3.0969,-3.112,-3.1188,-3.1117,-3.1194,-3.1219,-3.1214,-3.127,-3.1264,-3.1329,-3.1252,-3.1269,-3.1332,-3.1329,-3.1435,-3.1314,-3.1398,-3.1401,-3.1395,-3.1652,-3.1701,-3.189,-3.1563,-3.1568,-3.1571,0,-3.1102,-3.1145,-3.1303,-3.1317,-3.1344,-3.1414,-3.1462,-3.1517,-3.1543,-3.1534,-3.1567,-3.1525,-3.1613,-3.1516,-3.1637,-3.1555,-3.1587,-3.1591,-3.1597,-3.1606,-3.1498,-3.1669,-3.1949,-3.1978,-3.1611,-3.1607,-3.1605,0,-3.1293,-3.1389,-3.1496,-3.1515,-3.1534,-3.1585,-3.1595,-3.1615,-3.165,-3.1692,-3.1715,-3.1766,-3.1795,-3.1836,-3.1809,-3.1741,-3.1936,-3.1836,-3.1932,-3.1933,-3.1978,-3.1976,-3.2269,-3.1996,-3.1995,-3.1995,-3.1994,0,-3.1519,-3.1619,-3.1582,-3.1649,-3.1758,-3.1718,-3.1827,-3.1829,-3.1847,-3.1912,-3.1853,-3.1916,-3.1876,-3.1935,-3.1915,-3.2019,-3.2032,-3.2028,-3.2022,-3.2034,-3.2035,-3.2056,-3.2043,-3.2002,-3.2001,-3.1999,-3.1998,0,-3.1752,-3.1731,-3.1843,-3.1851,-3.1855,-3.1936,-3.1942,-3.2004,-3.1993,-3.2076,-3.2094,-3.2077,-3.2144,-3.2121,-3.2192,-3.2178,-3.2311,-3.2287,-3.2303,-3.2298,-3.2395,-3.2387,-3.2714,-3.2755,-3.2454,-3.2457,-3.2459,0,-3.1899,-3.1974,-3.199,-3.2029,-3.2043,-3.2107,-3.2142,-3.2105,-3.2145,-3.2179,-3.2236,-3.2297,-3.2345,-3.2454,-3.2449,-3.2503,-3.2481,-3.2591,-3.2489,-3.2499,-3.2484,-3.2481,-3.2489,-3.2613,-3.2616,-3.2619,-3.2622,0,-3.2163,-3.2149,-3.2202,-3.2252,-3.2295,-3.2333,-3.2365,-3.2401,-3.2365,-3.2412,-3.2479,-3.2516,-3.2588,-3.265,-3.2698,-3.2708,-3.266,-3.2653,-3.2679,-3.2694,-3.2701,-3.27,-3.2361,-3.2647,-3.2644,-3.2642,-3.2641,-3.264,-3.2358,-3.2422,-3.2443,-3.2504,-3.2524,-3.2555,-3.2613,-3.2609,-3.2664,-3.272,-3.2694,-3.2772,-3.2794,-3.2854,-3.2871,-3.2931,-3.2889,-3.2925,-3.2935,-3.2945,-3.2958,-3.2689,-3.294,-3.2939,-3.2938,-3.2938,-3.2937,0,-3.2621,-3.263,-3.2686,-3.2733,-3.2781,-3.2729,-3.2762,-3.2806,-3.2875,-3.29,-3.2947,-3.3024,-3.3083,-3.3082,-3.3137,-3.3185,-3.3164,-3.3201,-3.3198,-3.3201,-3.2992,-3.2966,-3.3217,-3.3217,-3.3217,-3.3217,-3.3217,-3.3217,-3.2763,-3.2868,-3.2855,-3.2969,-3.2977,-3.3053,-3.3076,-3.3104,-3.3124,-3.3212,-3.3261,-3.3259,-3.3274,-3.3329,-3.3381,-3.3379,-3.3402,-3.3448,-3.3438,-3.3244,-3.3216,-3.319,-3.3164,-3.3453,-3.3453,-3.3642,-3.3644,-3.3645]},{"header":{"parameterUnit":"m.s-1","parameterCategory":1,"la1":30.2991,"la2":30.254,"lo1":-89.0895,"lo2":-89.0444,"dy":0.0017,"dx":0.0017,"nx":28,"ny":28,"refTime":"2024-10-21T03:00:00:Z","depth":0,"parameterNumber":3,"parameterNumberName":"V-component_of_WINDS"},"data":[0,0,0,0,0,0,0,0,0,0,0,0,0,0,0,0,0,0,0,0,0,0,0,0,0,0,0,0,0,0,0,0,0,0,0,0,0,0,0,0,0,0,0,0,0,0,0,0,0,0,0,0,0,0,0,0,0,0,-3.6663,-3.6664,0,-3.6678,-3.6678,-3.6678,-3.6626,-3.6624,-3.6622,-3.6621,-3.6635,-3.6637,-3.6639,0,0,0,0,0,0,0,0,0,0,0,0,0,-3.6587,-3.6589,-3.6663,-3.6664,-3.6664,-3.6678,-3.6678,-3.6679,-3.6626,-3.6624,-3.6622,-3.662,-3.6635,-3.6637,-3.6639,0,0,0,0,0,0,0,0,0,0,0,0,0,-3.6613,-3.659,-3.6663,-3.6639,-3.6637,-3.6678,-3.6678,-3.6679,-3.6626,-3.6624,-3.6621,-3.6619,-3.6634,-3.6637,-3.6639,-3.6704,0,0,-3.6648,-3.6649,0,0,0,0,0,0,0,0,-3.6612,-3.6616,-3.6643,-3.6641,-3.6639,-3.6648,-3.6657,-3.6687,-3.6627,-3.663,-3.6621,-3.6618,-3.6641,-3.6643,-3.6651,-3.6705,-3.6705,-3.6648,-3.665,-3.6651,-3.6652,0,0,0,0,0,0,0,-3.661,-3.6615,-3.6669,-3.6643,-3.6641,-3.6627,-3.6628,-3.6662,-3.6649,-3.663,-3.6626,-3.6629,-3.664,-3.6649,-3.6651,-3.6705,-3.6648,-3.665,-3.6652,-3.6653,-3.681,-3.6812,0,0,0,0,0,0,-3.6612,-3.6614,-3.6669,-3.667,-3.6619,-3.663,-3.6631,-3.6647,-3.6648,-3.6646,-3.6631,-3.6626,-3.6645,-3.6648,-3.6651,-3.6725,-3.6651,-3.6653,-3.6655,-3.6807,-3.681,-3.6813,0,0,0,0,0,0,-3.661,-3.6617,-3.6668,-3.6641,-3.6646,-3.6634,-3.6652,-3.6649,-3.6658,-3.6649,-3.6646,-3.6642,-3.6643,-3.6647,-3.6691,-3.6725,-3.6655,-3.6657,-3.6804,-3.6808,-3.6812,-3.6875,0,0,0,0,0,0,-3.6608,-3.6617,-3.6642,-3.6642,-3.6648,-3.6708,-3.6654,-3.6651,-3.6663,-3.6657,-3.6659,-3.6657,-3.6642,-3.6687,-3.6693,-3.6728,-3.6659,-3.6801,-3.6806,-3.6811,-3.6869,-3.688,-3.6889,0,0,0,0,0,-3.6606,-3.6659,-3.6644,-3.665,-3.6679,-3.671,-3.6714,-3.6695,-3.6666,-3.669,-3.6684,-3.6657,-3.672,-3.6692,-3.6699,-3.6734,-3.6799,-3.6805,-3.681,-3.6865,-3.6878,-3.6889,0,0,0,0,0,0,-3.6664,-3.6659,-3.6641,-3.6697,-3.6704,-3.6701,-3.6732,-3.671,-3.6726,-3.6719,-3.6695,-3.6696,-3.6743,-3.6743,-3.6711,-3.6795,-3.6754,-3.6762,-3.6794,-3.6806,-3.6816,-3.6814,-3.6662,0,0,0,0,0,-3.6684,-3.671,-3.6704,-3.6753,-3.6758,-3.6744,-3.6757,-3.6742,-3.6749,-3.6752,-3.6749,-3.6756,-3.6777,-3.6792,-3.6811,-3.6869,-3.6868,-3.6897,-3.6907,-3.6915,-3.6921,-3.695,-3.6962,-3.6831,-3.6831,-3.6831,0,0,-3.6724,-3.6724,-3.6743,-3.6765,-3.6769,-3.6796,-3.6747,-3.6778,-3.6797,-3.6756,-3.6796,-3.6795,-3.6801,-3.6851,-3.6873,-3.6853,-3.6957,-3.6922,-3.6929,-3.693,-3.6957,-3.6969,-3.698,-3.6835,-3.6835,-3.6834,0,0,-3.6811,-3.6815,-3.6855,-3.686,-3.6866,-3.6856,-3.6866,-3.6866,-3.6863,-3.6903,-3.6872,-3.6894,-3.6932,-3.6937,-3.6945,-3.7031,-3.7006,-3.7038,-3.709,-3.7118,-3.7128,-3.7137,-3.7166,-3.7177,-3.7045,-3.7045,-3.7045,0,-3.686,-3.69,-3.6879,-3.6911,-3.6921,-3.6885,-3.6924,-3.693,-3.6942,-3.695,-3.6926,-3.6971,-3.6973,-3.7023,-3.7044,-3.7052,-3.7061,-3.7038,-3.7128,-3.7137,-3.7145,-3.7173,-3.7184,-3.7049,-3.7048,-3.7048,-3.7048,0,-3.6959,-3.6986,-3.7018,-3.703,-3.7044,-3.708,-3.7063,-3.708,-3.7063,-3.7055,-3.7095,-3.7096,-3.7114,-3.7125,-3.7109,-3.7172,-3.7159,-3.7133,-3.7091,-3.7162,-3.7187,-3.7197,-3.7054,-3.7053,-3.7052,-3.7051,0,0,-3.7084,-3.7082,-3.7094,-3.7098,-3.7102,-3.7122,-3.7156,-3.7173,-3.7186,-3.7196,-3.7223,-3.7255,-3.7229,-3.7238,-3.7223,-3.7248,-3.7314,-3.7218,-3.7217,-3.7234,-3.7381,-3.74,-3.7412,-3.7298,-3.7299,-3.7301,-3.738,0,-3.7167,-3.7225,-3.7206,-3.7263,-3.7287,-3.7252,-3.7281,-3.7286,-3.728,-3.7299,-3.7291,-3.7313,-3.728,-3.7284,-3.7308,-3.7301,-3.7343,-3.7295,-3.7321,-3.7322,-3.7319,-3.7426,-3.7446,-3.752,-3.739,-3.7391,-3.7393,0,-3.7273,-3.7285,-3.7345,-3.7343,-3.7352,-3.7378,-3.7391,-3.741,-3.7414,-3.7408,-3.7417,-3.7395,-3.7427,-3.7386,-3.7428,-3.7396,-3.7405,-3.7403,-3.7406,-3.7406,-3.7361,-3.7428,-3.7544,-3.7554,-3.7408,-3.7407,-3.7406,0,-3.7355,-3.7387,-3.7427,-3.7432,-3.743,-3.7449,-3.7449,-3.7451,-3.7462,-3.7473,-3.7479,-3.7495,-3.7503,-3.7515,-3.7497,-3.7469,-3.7541,-3.7499,-3.7536,-3.7536,-3.7552,-3.7551,-3.7669,-3.756,-3.756,-3.756,-3.756,0,-3.745,-3.7487,-3.7463,-3.7488,-3.7528,-3.7505,-3.7546,-3.7542,-3.7544,-3.7566,-3.7537,-3.7558,-3.7535,-3.7554,-3.7541,-3.7576,-3.7581,-3.7575,-3.7571,-3.7577,-3.7578,-3.7582,-3.7576,-3.7563,-3.7562,-3.7562,-3.7561,0,-3.7549,-3.7534,-3.7574,-3.7569,-3.7568,-3.7598,-3.7593,-3.7615,-3.7606,-3.7634,-3.7639,-3.7625,-3.7645,-3.763,-3.765,-3.7641,-3.7688,-3.7677,-3.7687,-3.7683,-3.7719,-3.7716,-3.7844,-3.7859,-3.7742,-3.7743,-3.7744,0,-3.7609,-3.7637,-3.7634,-3.7646,-3.7648,-3.7669,-3.7679,-3.7658,-3.767,-3.7675,-3.7696,-3.7714,-3.7727,-3.7761,-3.7752,-3.7767,-3.7755,-3.7799,-3.7758,-3.7762,-3.7754,-3.7752,-3.7754,-3.7807,-3.7809,-3.781,-3.7811,0,-3.7718,-3.7709,-3.7725,-3.7738,-3.7751,-3.776,-3.7767,-3.7779,-3.7757,-3.7772,-3.7792,-3.7802,-3.7822,-3.7839,-3.7851,-3.785,-3.7827,-3.7824,-3.7833,-3.7839,-3.7842,-3.7839,-3.7708,-3.7821,-3.782,-3.7819,-3.7819,-3.7818,-3.7798,-3.782,-3.7821,-3.7839,-3.7842,-3.7848,-3.7868,-3.786,-3.7877,-3.7891,-3.7877,-3.7901,-3.7903,-3.7916,-3.7918,-3.7936,-3.7918,-3.7931,-3.7934,-3.7937,-3.7942,-3.784,-3.7938,-3.7938,-3.7938,-3.7938,-3.7937,0,-3.7903,-3.7901,-3.7918,-3.7928,-3.7942,-3.7919,-3.7925,-3.7938,-3.7959,-3.7962,-3.7975,-3.7997,-3.8014,-3.8006,-3.802,-3.8036,-3.8025,-3.804,-3.8038,-3.8038,-3.7958,-3.7948,-3.8048,-3.8048,-3.8048,-3.8048,-3.8048,-3.8048,-3.796,-3.7995,-3.7986,-3.8021,-3.8019,-3.8042,-3.8047,-3.8053,-3.8055,-3.8081,-3.8094,-3.8089,-3.8087,-3.8101,-3.8114,-3.8111,-3.8117,-3.8136,-3.8129,-3.8055,-3.8044,-3.8033,-3.8024,-3.8138,-3.8138,-3.8207,-3.8207,-3.8208]}]]